Location: Haliburton Scout Reserve
(45.0900°N, 78.3200°W)
Time: 09:49:08
(UTC-04:00)

S-56A Canister/Altair - Pass Details

Date: 31 January 2023
Orbit: 638 x 2493 km, 38.9° (Epoch: 25 March)

Event Time Altitude Azimuth Distance (km) Brightness Sun altitude
Rises 14:15:39 0° 259° (W) 3,257 11.3 22.9°
Reaches altitude 10° 14:17:49 10° 254° (WSW) 2,472 10.9 22.7°
Maximum altitude 14:23:28 53° 179° (S) 1,308 9.7 22.2°
Drops below altitude 10° 14:31:48 10° 106° (ESE) 3,617 10.9 21.5°
Sets 14:35:37 0° 102° (ESE) 4,912 11.4 21.1°
